Hurghada, Egypt

8:04 AM EET on May 28, 2017 (GMT +0200)
Hurghada

Weather History for HEGN - September, 2012

Change the Weather History Date:

Monday, September 17, 2012

  Actual Average Record
Temperature  
Mean Temperature 86 °F -  
Max Temperature 95 °F 88 °F 105 °F (2015)
Min Temperature 78 °F 74 °F 73 °F (2004)
Cooling Degree Days 22    
Growing Degree Days 36 (Base 50)    
Moisture  
Dew Point 68 °F    
Average Humidity 54    
Maximum Humidity 89    
Minimum Humidity 23    
Precipitation  
Precipitation 0.00 in - - ()
Sea Level Pressure  
Sea Level Pressure 29.78 in    
Wind  
Wind Speed 7 mph ()    
Max Wind Speed 16 mph    
Max Gust Speed -    
Visibility 6.0 miles    
Events      
Averages and records for this station are not official NWS values.
T = Trace of Precipitation, MM = Missing Value Source: Averaged Metar Reports

Daily Weather History Graph

Daily Weather History Graph

Search for Another Location

Airport or City:

Trip Planner

Search our weather history database for the weather conditions in past years. The results will help you decide how hot, cold, wet, or windy it might be!

Date:

Astronomy

Sep. 17, 2012 Rise Set
Actual Time 5:31 AM EET 5:47 PM EET
Civil Twilight 5:08 AM EET 6:10 PM EET
Nautical Twilight 4:41 AM EET 6:37 PM EET
Astronomical Twilight 4:13 AM EET 7:04 PM EET
Moon 6:43 AM EET (9/17) 6:32 PM EET (9/17)
Length of Visible Light 13h 02m
Length of Day
12h 15m
New Moon, 2% of the Moon is Illuminated
Sep 17
New Moon
Sep 22
First Quarter
Sep 30
Full
Oct 8
Last Quarter
Oct 15
New

Hourly Weather History & Observations

Time (EET) Temp. Heat Index Dew Point Humidity Pressure Visibility Wind Dir Wind Speed Gust Speed Precip Events Conditions
12:00 AM 80.6 °F 87.1 °F 77.0 °F 89% 29.77 in - NW 4.6 mph - N/A   Clear
1:00 AM 82.4 °F 89.5 °F 75.2 °F 79% 29.77 in - NW 2.3 mph - N/A   Clear
2:00 AM 82 °F - 70 °F 59% 29.78 in 6 mi NNW 6.9 mph - -  
2:00 AM 82.4 °F 86.3 °F 69.8 °F 66% 29.77 in - NNW 6.9 mph - N/A   Clear
3:00 AM 78.8 °F - 68.0 °F 69% 29.77 in - NW 5.8 mph - N/A   Clear
4:00 AM 80.6 °F 83.2 °F 68.0 °F 65% 29.77 in - NW 10.4 mph - N/A   Clear
5:00 AM 78.8 °F - 66.2 °F 65% 29.77 in - NW 9.2 mph - N/A   Clear
6:00 AM 78.8 °F - 66.2 °F 65% 29.77 in - NW 9.2 mph - N/A   Clear
7:00 AM 82.4 °F 83.9 °F 64.4 °F 54% 29.80 in - NW 9.2 mph - N/A   Clear
8:00 AM 86.0 °F 87.3 °F 64.4 °F 48% 29.80 in - North 10.4 mph - N/A   Clear
9:00 AM 89.6 °F 92.2 °F 66.2 °F 46% 29.83 in - NNW 16.1 mph - N/A   Clear
10:00 AM 87.8 °F 92.6 °F 69.8 °F 55% 29.83 in - North 13.8 mph - N/A   Clear
11:00 AM 91.4 °F 96.8 °F 69.8 °F 49% 29.80 in - NNE 10.4 mph - N/A   Clear
12:00 PM 93.2 °F 96.2 °F 66.2 °F 41% 29.80 in - North 8.1 mph - N/A   Clear
1:00 PM 95.0 °F 98.5 °F 66.2 °F 39% 29.77 in - NNE 9.2 mph - N/A   Clear
2:00 PM 95 °F - 67 °F 30% 29.78 in 6 mi ENE 6.9 mph - -  
2:00 PM 95.0 °F 99.5 °F 68.0 °F 41% 29.77 in - ENE 6.9 mph - N/A   Clear
3:00 PM 95.0 °F 104.5 °F 73.4 °F 49% 29.74 in - SE 9.2 mph - N/A   Clear
4:00 PM 91.4 °F 102.5 °F 75.2 °F 59% 29.74 in - SE 5.8 mph - N/A   Clear
5:00 PM 91.4 °F 95.4 °F 68.0 °F 46% 29.74 in - SSE 4.6 mph - N/A   Clear
6:00 PM 87.8 °F 95.6 °F 73.4 °F 62% 29.74 in - ESE 4.6 mph - N/A   Clear
7:00 PM 86.0 °F 95.1 °F 75.2 °F 70% 29.77 in - SE 4.6 mph - N/A   Clear
8:00 PM 88 °F - 73 °F 52% 29.78 in 6 mi South 5.8 mph - -  
8:00 PM 87.8 °F 95.6 °F 73.4 °F 62% 29.77 in - South 5.8 mph - N/A   Clear
9:00 PM 87.8 °F 87.6 °F 60.8 °F 40% 29.80 in - North 4.6 mph - N/A   Clear
9:22 PM 87.8 °F 87.6 °F 60.8 °F 40% 29.80 in - North 4.6 mph - N/A   Clear
10:00 PM 86.0 °F 86.1 °F 60.8 °F 43% 29.80 in - NW 10.4 mph - N/A   Clear
11:00 PM 86.0 °F - 44.6 °F 23% 29.80 in - WNW 8.1 mph - N/A   Clear